Regional Weather Roundup
Issued by NWS State College, PA

Home | Current Version | Previous Version | Graphics & Text | Print | Product List | Glossary Off
Versions: 1 2 3 4 5 6 7 8 9 10 11 12 13 14 15 16 17 18 19 20 21 22 23 24 25 26 27 28 29 30 31 32 33 34 35 36 37 38 39 40 41 42 43 44 45 46 47 48 49 50

000
ASUS41 KCTP 012303
RWRCTP

REGIONAL WEATHER ROUNDUP
NATIONAL WEATHER SERVICE STATE COLLEGE PA
700 PM EDT FRI AUG 01 2014

Note: "fair" indicates few or no clouds below 12,000 feet with no
significant weather and/or obstructions to visibility.

* = STATION THAT DOES NOT REPORT PRECIPITATION /E.G. RAIN...SNOW...ETC/
    THUNDER OR FOG.

PAZ002>004-007>009-013>016-020>023-029>032-020000-
WESTERN PENNSYLVANIA

CITY           SKY/WX    TMP DP  RH WIND       PRES   REMARKS
ERIE           SUNNY     77  60  55 N6        30.10S
MEADVILLE      SUNNY     78  58  49 CALM      30.12S
FRANKLIN*      SUNNY     79  59  50 SE6       30.13S
NEW CASTLE     FAIR      82  60  47 CALM      30.10S
BEAVER COUNTY  SUNNY     81  55  41 CALM      30.09F
BUTLER*        MOSUNNY   77  63  61 S7        30.13R
PITTSBURGH INT MOSUNNY   78  62  57 S9        30.09S
PITTSBURGH     MOSUNNY   77  60  55 S7        30.10S
INDIANA*       MOSUNNY   77  63  61 SE6       30.17R
LATROBE        PTSUNNY   79  64  61 SE6       30.12S
WASHINGTON CO* PTSUNNY   73  63  68 SE6       30.11S
$$

PAZ004>006-010>012-017>019-024>028-033>037-041-042-045-046-049>053-020000-
CENTRAL PENNSYLVANIA

CITY           SKY/WX    TMP DP  RH WIND       PRES   REMARKS
BRADFORD       MOSUNNY   77  55  46 S5        30.16R
DUBOIS         MOSUNNY   75  62  64 SE3       30.14S
CLEARFIELD     SUNNY     76  62  62 CALM      30.15R
JOHNSTOWN      MOSUNNY   69  56  62 SE10      30.17S
ALTOONA        MOSUNNY   74  60  61 S10       30.17R
STATE COLLEGE  PTSUNNY   75  63  64 S5        30.15S
WILLIAMSPORT   PTSUNNY   75  63  66 S12G23    30.13R
SELINSGROVE    PTSUNNY   74  63  68 SE6       30.15F
FT INDIANTOWN  CLOUDY    72  69  88 VRB1      30.18R
CAPITAL CITY   CLOUDY    76  65  68 E6        30.16S
HARRISBURG     CLOUDY    75  66  73 SE8       30.16S
YORK           CLOUDY    76  64  66 SW3       30.16F
$$

PAZ038>040-043-044-047-048-054-055-060>062-067>071-020000-
EASTERN PENNSYLVANIA

CITY           SKY/WX    TMP DP  RH WIND       PRES   REMARKS
SCRANTON       CLOUDY    76  63  64 S7        30.17R
MOUNT POCONO   CLOUDY    68  61  78 S13       30.23S
ALLENTOWN      LGT RAIN  69  64  84 W3        30.20S
QUAKERTOWN*    CLOUDY    68  66  94 CALM      30.21F
READING        LGT RAIN  73  65  75 E9        30.18S
LANCASTER      CLOUDY    67  64  90 E3        30.17F
COATESVILLE    CLOUDY    68  68 100 E6        30.21S
POTTSTOWN      CLOUDY    72  65  78 N5        30.21F
BLUE BELL      CLOUDY    72  68  88 CALM      30.20R
DOYLESTOWN     CLOUDY    67  66  97 CALM      30.19F
WILLOW GROVE   NOT AVBL
NORTH PHILA    CLOUDY    73  66  78 CALM      30.20S
PHILADELPHIA   CLOUDY    74  68  81 E3        30.19S
$$


USA.gov is the U.S. government's official web portal to all federal, state and local government web resources and services.